Flag for Switzerland Weather past 2 weeks in Schaffhausen, Schaffhausen, Switzerland

Now
34 °F

Chilly.


Feels Like: 27 °F
Forecast: 33 / 38 °F
Wind: 8 mph from Southwest

Location: Zurich-Kloten

Current Time: Jan 28, 2015 at 1:06:09 PM

Latest Report: Jan 28, 2015 at 12:00 PM


Visibility: N/A

Pressure: 30.16 "Hg

Humidity: 73%

Dew point: 26 °F

Location of SchaffhausenLocation

Historic Weather in Schaffhausen — Graph

°F

Schaffhausen temperature yesterday

Maximum temperature yesterday: 37 °F (at 2:00 PM)
Minimum temperature yesterday: 33 °F (at 9:00 AM)
Average temperature yesterday: 35 °F

Past Weeks' High & Low Weather Summary

 TemperatureHumidityPressure
High54 °F (Jan 13, 2:00 PM)100% (Jan 18, 6:00 AM)30.48 "Hg (Jan 18, 6:00 AM)
Low23 °F (Jan 26, 5:00 AM)27% (Jan 13, 2:00 PM)29.70 "Hg (Jan 16, 4:00 PM)
Average35 °F86%30.08 "Hg
* Reported Jan 13 11:00 AM — Jan 28 11:00 AM, Schaffhausen, Weather by CustomWeather, © 2014

Note: Actual official high and low records may vary slightly from our data, if they occured in-between our weather recording intervals... More about our weather records

Advertising

Schaffhausen weather history for previous 24 hours

 ConditionsComfort  
Time TempWeatherWind HumidityBarometerVisibility
11:00 AM
Jan 28
32 °FChilly.7 mph81%30.20 "HgN/A
10:00 AM28 °FFog.2 mph91%30.22 "Hg5 mi
9:00 AM26 °FChilly.1 mph96%30.24 "HgN/A
8:00 AM27 °FChilly.3 mph97%30.25 "HgN/A
7:00 AM24 °FCold.5 mph99%30.26 "HgN/A
6:00 AM25 °FChilly.2 mph100%30.26 "HgN/A
5:00 AM28 °FChilly.2 mph96%30.27 "HgN/A
4:00 AM32 °FOvercast.2 mph87%30.27 "Hg9 mi
3:00 AM32 °FChilly.3 mph87%30.28 "HgN/A
2:00 AM33 °FChilly.6 mph84%30.29 "HgN/A
1:00 AM32 °FOvercast.5 mph87%30.29 "Hg9 mi
12:00 AM33 °FChilly.5 mph87%30.29 "HgN/A
11:00 PM
Jan 27
34 °FChilly.3 mph84%30.30 "HgN/A
10:00 PM34 °FOvercast.3 mph82%30.30 "Hg10 mi
9:00 PM34 °FChilly.5 mph84%30.29 "HgN/A
8:00 PM35 °FChilly.5 mph82%30.29 "HgN/A
7:00 PM34 °FOvercast.3 mph82%30.29 "Hg11 mi
6:00 PM35 °FChilly.5 mph81%30.29 "HgN/A
5:00 PM35 °FChilly.7 mph79%30.27 "HgN/A
4:00 PM36 °FOvercast.6 mph78%30.27 "Hg11 mi
3:00 PM36 °FChilly.8 mph78%30.26 "HgN/A
2:00 PM37 °FChilly.8 mph76%30.26 "HgN/A
1:00 PM36 °FPartly sunny.6 mph80%30.28 "Hg9 mi
Weather by CustomWeather, © 2014

See weather overviewHow to use our weather pages